Location: Hokitika
(42.7170°S, 170.9670°E)
Time: 18:49:14
(UTC+13:00)

Spot 2 Rocket - Pass Details

Date: 24 January 2019
Orbit: 758 x 772 km, 98.6° (Epoch: 23 October)

Event Time Altitude Azimuth Distance (km) Brightness Sun altitude
Rises 23:14:02 0° 168° (SSE) 3,284 7.4 -18.6°
Reaches altitude 10° 23:16:22 10° 168° (SSE) 2,347 6.5 -18.9°
Maximum altitude 23:21:33 82° 255° (WSW) 790 3.5 -19.5°
Enters shadow 23:25:06 20° 340° (NNW) 1,705 5.0 -19.9°
